,,,PA_Meas_PMT16A,,PR_Meas_QMR101_102,,RH_Meas_QMH101,,SR_Meas_QMS101,,TA_Meas_QMH101,,GenWind,,GenWind,
date,time,status,PA,status,PR,status,RH,status,SR,status,TA,status,DirAvg,status,SpdAvg,
2011-10-02, 00:00:05,VALID,1000.52,VALID,0,VALID,89.236,VALID,0,VALID,23.0769,VALID,140,VALID,0.76875,
2011-10-02, 00:01:05,VALID,1000.48,VALID,0,VALID,89.3963,VALID,0,VALID,23.1159,VALID,140,VALID,0.552344,
2011-10-02, 00:02:05,VALID,1000.48,VALID,0,VALID,89.4878,VALID,0,VALID,23.1159,VALID,140,VALID,0.542969,
2011-10-02, 00:03:05,VALID,1000.45,VALID,0,VALID,89.4573,VALID,0,VALID,23.0946,VALID,140,VALID,0.525,
2011-10-02, 00:04:05,VALID,1000.44,VALID,0,VALID,89.3047,VALID,0,VALID,23.0964,VALID,140,VALID,0.785937,
2011-10-02, 00:05:05,VALID,1000.43,VALID,0,VALID,89.1216,VALID,0,VALID,23.0946,VALID,140,VALID,0.373047,
2011-10-02, 00:06:05,VALID,1000.44,VALID,0,VALID,88.8774,VALID,0.104696,VALID,23.0769,VALID,140,VALID,0.643359,
2011-10-02, 00:07:05,VALID,1000.4,VALID,0,VALID,88.8317,VALID,0,VALID,23.0769,VALID,140,VALID,0.484766,
2011-10-02, 00:08:05,VALID,1000.38,VALID,0,VALID,88.8851,VALID,0,VALID,23.0786,VALID,140,VALID,0.339453,
2011-10-02, 00:09:05,VALID,1000.38,VALID,0,VALID,89.0377,VALID,0,VALID,23.0786,VALID,140,VALID,0.327734,
2011-10-02, 00:10:05,VALID,1000.34,VALID,0,VALID,89.1903,VALID,0,VALID,23.0591,VALID,140,VALID,0.733594,
2011-10-02, 00:11:05,VALID,1000.32,VALID,0,VALID,89.5183,VALID,0,VALID,23.0591,VALID,106,VALID,1.01758,
2011-10-02, 00:12:05,VALID,1000.29,VALID,0,VALID,89.7701,VALID,0,VALID,23.0591,VALID,106,VALID,0.717578,
2011-10-02, 00:13:05,VALID,1000.26,VALID,0,VALID,90.0143,VALID,0,VALID,23.0396,VALID,106,VALID,1.03437,
2011-10-02, 00:14:05,VALID,1000.19,VALID,0,VALID,90.1134,VALID,0,VALID,23.0396,VALID,106,VALID,1.07266,
2011-10-02, 00:15:05,VALID,1000.16,VALID,0,VALID,90.0066,VALID,0,VALID,23.0006,VALID,106,VALID,0.903516,
2011-10-02, 00:16:05,VALID,1000.14,VALID,0,VALID,90.06,VALID,0,VALID,23.0006,VALID,106,VALID,0.610547,
2011-10-02, 00:17:05,VALID,1000.1,VALID,0,VALID,90.1592,VALID,0,VALID,23.0006,VALID,106,VALID,0.548047,
2011-10-02, 00:18:05,VALID,1000.08,VALID,0,VALID,90.205,VALID,0,VALID,22.9811,VALID,106,VALID,0.790234,
2011-10-02, 00:19:05,VALID,1000.08,VALID,0,VALID,90.06,VALID,0,VALID,22.9615,VALID,106,VALID,0.744141,
2011-10-02, 00:20:05,VALID,1000.05,VALID,0,VALID,89.8846,VALID,0,VALID,22.942,VALID,100,VALID,0.750391,
2011-10-02, 00:21:05,VALID,1000.04,VALID,0,VALID,89.7777,VALID,0,VALID,22.942,VALID,97,VALID,0.627734,
2011-10-02, 00:22:05,VALID,1000.06,VALID,0,VALID,89.7396,VALID,0,VALID,22.9208,VALID,107,VALID,0.552734,
2011-10-02, 00:23:05,VALID,1000.04,VALID,0,VALID,89.7854,VALID,0,VALID,22.9013,VALID,107,VALID,0.392188,
2011-10-02, 00:24:05,VALID,1000.06,VALID,0,VALID,89.7854,VALID,0,VALID,22.8818,VALID,107,VALID,0.519531,
2011-10-02, 00:25:05,VALID,1000.05,VALID,0,VALID,89.7777,VALID,0,VALID,22.8818,VALID,107,VALID,0.382422,
2011-10-02, 00:26:05,VALID,1000.02,VALID,0,VALID,89.7396,VALID,0,VALID,22.8427,VALID,107,VALID,0.478516,
2011-10-02, 00:27:05,VALID,1000.01,VALID,0,VALID,89.7625,VALID,0,VALID,22.8232,VALID,107,VALID,0.651563,
2011-10-02, 00:28:05,VALID,999.996,VALID,0,VALID,89.7854,VALID,0,VALID,22.8232,VALID,107,VALID,0.452734,
2011-10-02, 00:29:05,VALID,999.961,VALID,0,VALID,89.7396,VALID,0,VALID,22.8037,VALID,107,VALID,0.144531,
2011-10-02, 00:30:05,VALID,999.956,VALID,0,VALID,89.6404,VALID,0,VALID,22.7842,VALID,107,VALID,0,
2011-10-02, 00:31:05,VALID,999.913,VALID,0,VALID,89.5946,VALID,0,VALID,22.7647,VALID,107,VALID,0,
2011-10-02, 00:32:05,VALID,999.902,VALID,0,VALID,89.6251,VALID,0,VALID,22.7452,VALID,107,VALID,0,
2011-10-02, 00:33:05,VALID,999.9,VALID,0,VALID,89.5946,VALID,0,VALID,22.7062,VALID,107,VALID,0.135547,
2011-10-02, 00:34:05,VALID,999.879,VALID,0,VALID,89.6251,VALID,0,VALID,22.7062,VALID,107,VALID,0.182422,
2011-10-02, 00:35:05,VALID,999.853,VALID,0,VALID,89.6557,VALID,0,VALID,22.6867,VALID,107,VALID,0.308984,
2011-10-02, 00:36:05,VALID,999.85,VALID,0,VALID,89.6557,VALID,0,VALID,22.6867,VALID,107,VALID,0.408984,
2011-10-02, 00:37:05,VALID,999.854,VALID,0,VALID,89.587,VALID,0,VALID,22.7062,VALID,107,VALID,0.714453,
2011-10-02, 00:38:05,VALID,999.819,VALID,0,VALID,89.442,VALID,0,VALID,22.7062,VALID,107,VALID,0.801172,
2011-10-02, 00:39:05,VALID,999.836,VALID,0,VALID,89.2971,VALID,0,VALID,22.7452,VALID,107,VALID,0.641406,
2011-10-02, 00:40:05,VALID,999.797,VALID,0,VALID,89.1979,VALID,0,VALID,22.7452,VALID,107,VALID,0.238281,
2011-10-02, 00:41:05,VALID,999.809,VALID,0,VALID,89.2666,VALID,0,VALID,22.7647,VALID,107,VALID,0.417969,
2011-10-02, 00:42:05,VALID,999.801,VALID,0,VALID,89.3505,VALID,0,VALID,22.7647,VALID,107,VALID,0.262109,
2011-10-02, 00:43:05,VALID,999.784,VALID,0,VALID,89.4039,VALID,0,VALID,22.7452,VALID,107,VALID,0.239844,
2011-10-02, 00:44:05,VALID,999.739,VALID,0,VALID,89.4039,VALID,0,VALID,22.7257,VALID,107,VALID,0.221094,
2011-10-02, 00:45:05,VALID,999.674,VALID,0,VALID,89.4115,VALID,0,VALID,22.7452,VALID,107,VALID,0.382813,
2011-10-02, 00:46:05,VALID,999.699,VALID,0,VALID,89.4954,VALID,0,VALID,22.7452,VALID,107,VALID,0.712891,
2011-10-02, 00:47:05,VALID,999.656,VALID,0,VALID,89.4115,VALID,0,VALID,22.7647,VALID,107,VALID,0.754297,
2011-10-02, 00:48:05,VALID,999.668,VALID,0,VALID,89.32,VALID,0,VALID,22.8037,VALID,107,VALID,0.703516,
2011-10-02, 00:49:05,VALID,999.657,VALID,0,VALID,89.2208,VALID,0,VALID,22.8232,VALID,107,VALID,0.553906,
2011-10-02, 00:50:05,VALID,999.634,VALID,0,VALID,88.9766,VALID,0,VALID,22.7825,VALID,107,VALID,0.688281,
2011-10-02, 00:51:05,VALID,999.609,VALID,0,VALID,88.6943,VALID,0,VALID,22.8037,VALID,107,VALID,0.576563,
2011-10-02, 00:52:05,VALID,999.584,VALID,0,VALID,88.4883,VALID,0,VALID,22.8037,VALID,107,VALID,0.447656,
2011-10-02, 00:53:05,VALID,999.59,VALID,0,VALID,88.2976,VALID,0,VALID,22.8232,VALID,107,VALID,0.476563,
2011-10-02, 00:54:05,VALID,999.564,VALID,0,VALID,88.0611,VALID,0,VALID,22.8427,VALID,107,VALID,0.504297,
2011-10-02, 00:55:05,VALID,999.583,VALID,0,VALID,87.7635,VALID,0,VALID,22.8427,VALID,107,VALID,0.667578,
2011-10-02, 00:56:05,VALID,999.536,VALID,0,VALID,87.6796,VALID,0,VALID,22.8818,VALID,107,VALID,0.283594,
2011-10-02, 00:57:05,VALID,999.543,VALID,0,VALID,87.794,VALID,0,VALID,22.8818,VALID,107,VALID,0.365234,
2011-10-02, 00:58:05,VALID,999.531,VALID,0,VALID,87.7864,VALID,0,VALID,22.8818,VALID,107,VALID,0.289063,
2011-10-02, 00:59:05,VALID,999.499,VALID,0,VALID,88.2366,VALID,0,VALID,22.8232,VALID,107,VALID,0.469141,
2011-10-02, 01:00:05,VALID,999.476,VALID,0,VALID,88.6409,VALID,0,VALID,22.7842,VALID,107,VALID,0.428516,
2011-10-02, 01:01:05,VALID,999.467,VALID,0,VALID,88.7783,VALID,0,VALID,22.7452,VALID,107,VALID,0.511328,
2011-10-02, 01:02:05,VALID,999.421,VALID,0,VALID,88.824,VALID,0,VALID,22.7452,VALID,107,VALID,0.695703,
2011-10-02, 01:03:05,VALID,999.386,VALID,0,VALID,88.9766,VALID,0,VALID,22.7257,VALID,55,VALID,0.891797,
2011-10-02, 01:04:05,VALID,999.379,VALID,0,VALID,88.8927,VALID,0,VALID,22.7257,VALID,30,VALID,0.872266,
2011-10-02, 01:05:05,VALID,999.343,VALID,0,VALID,88.8469,VALID,0,VALID,22.7452,VALID,23,VALID,0.901172,
2011-10-02, 01:06:05,VALID,999.316,VALID,0,VALID,88.7706,VALID,0,VALID,22.7647,VALID,39,VALID,0.707422,
2011-10-02, 01:07:05,VALID,999.317,VALID,0,VALID,88.763,VALID,0,VALID,22.7452,VALID,39,VALID,0.546484,
2011-10-02, 01:08:05,VALID,999.297,VALID,0,VALID,88.7325,VALID,0,VALID,22.7647,VALID,39,VALID,0.341016,
2011-10-02, 01:09:05,VALID,999.308,VALID,0,VALID,88.6028,VALID,0,VALID,22.763,VALID,39,VALID,0.385156,
2011-10-02, 01:10:05,VALID,999.286,VALID,0,VALID,88.3739,VALID,0,VALID,22.7842,VALID,39,VALID,0.658594,
2011-10-02, 01:11:05,VALID,999.261,VALID,0,VALID,88.1068,VALID,0,VALID,22.7842,VALID,39,VALID,0.513672,
2011-10-02, 01:12:05,VALID,999.279,VALID,0,VALID,87.8398,VALID,0,VALID,22.8215,VALID,39,VALID,0.378516,
2011-10-02, 01:13:05,VALID,999.24,VALID,0,VALID,87.7635,VALID,0.104696,VALID,22.8818,VALID,39,VALID,0.348828,
2011-10-02, 01:14:05,VALID,999.283,VALID,0,VALID,87.7864,VALID,0,VALID,22.9013,VALID,39,VALID,0.370313,
2011-10-02, 01:15:04,VALID,999.279,VALID,0,VALID,88.1068,VALID,0,VALID,22.9013,VALID,40,VALID,0.430859,
2011-10-02, 01:16:04,VALID,999.294,VALID,0,VALID,88.4502,VALID,0.104696,VALID,22.88,VALID,39,VALID,0.441797,
2011-10-02, 01:17:04,VALID,999.238,VALID,0,VALID,88.824,VALID,0,VALID,22.8623,VALID,39,VALID,0.739062,
2011-10-02, 01:18:04,VALID,999.274,VALID,0,VALID,89.0682,VALID,0.104696,VALID,22.8232,VALID,39,VALID,0.708984,
2011-10-02, 01:19:04,VALID,999.254,VALID,0,VALID,89.2208,VALID,0,VALID,22.8037,VALID,39,VALID,0.573438,
2011-10-02, 01:20:04,VALID,999.263,VALID,0,VALID,89.3581,VALID,0.104696,VALID,22.763,VALID,39,VALID,0.406641,
2011-10-02, 01:21:04,VALID,999.257,VALID,0,VALID,89.442,VALID,0,VALID,22.7647,VALID,39,VALID,0.220703,
2011-10-02, 01:22:04,VALID,999.211,VALID,0,VALID,89.4649,VALID,0,VALID,22.7647,VALID,39,VALID,0.157422,
2011-10-02, 01:23:04,VALID,999.193,VALID,0,VALID,89.5031,VALID,0.104696,VALID,22.7452,VALID,39,VALID,0.111328,
2011-10-02, 01:24:04,VALID,999.173,VALID,0,VALID,89.4726,VALID,0.104696,VALID,22.7452,VALID,39,VALID,0.000390625,
2011-10-02, 01:25:04,VALID,999.162,VALID,0,VALID,89.381,VALID,0,VALID,22.7452,VALID,39,VALID,0,
2011-10-02, 01:26:04,VALID,999.144,VALID,0,VALID,89.381,VALID,0,VALID,22.7452,VALID,39,VALID,0.0121094,
2011-10-02, 01:27:04,VALID,999.14,VALID,0,VALID,89.3657,VALID,0,VALID,22.7257,VALID,39,VALID,0,
2011-10-02, 01:28:04,VALID,999.114,VALID,0,VALID,89.381,VALID,0.104696,VALID,22.7452,VALID,39,VALID,0.009375,
2011-10-02, 01:29:04,VALID,999.076,VALID,0,VALID,89.4497,VALID,0.104696,VALID,22.7842,VALID,150,VALID,0.522656,
2011-10-02, 01:30:04,VALID,999.079,VALID,0,VALID,89.3352,VALID,0,VALID,22.802,VALID,150,VALID,1.00547,
2011-10-02, 01:31:04,VALID,999.039,VALID,0,VALID,88.9385,VALID,0,VALID,22.9013,VALID,150,VALID,0.667188,
2011-10-02, 01:32:04,VALID,999.002,VALID,0,VALID,88.5646,VALID,0.104696,VALID,23.0183,VALID,150,VALID,0.473828,
2011-10-02, 01:33:04,VALID,999.015,VALID,0,VALID,88.1374,VALID,0,VALID,23.0556,VALID,150,VALID,0.554688,
2011-10-02, 01:34:04,VALID,998.981,VALID,0,VALID,87.8474,VALID,0,VALID,23.1159,VALID,150,VALID,0.176563,
2011-10-02, 01:35:04,VALID,998.961,VALID,0,VALID,87.9771,VALID,0.104696,VALID,23.0769,VALID,150,VALID,0.272266,
2011-10-02, 01:36:04,VALID,998.942,VALID,0,VALID,88.3663,VALID,0.104696,VALID,22.9971,VALID,150,VALID,0.440625,
2011-10-02, 01:37:04,VALID,998.918,VALID,0,VALID,88.7096,VALID,0,VALID,22.9403,VALID,150,VALID,0.612891,
2011-10-02, 01:38:04,VALID,998.894,VALID,0,VALID,89.0377,VALID,0,VALID,22.8818,VALID,150,VALID,0.515234,
2011-10-02, 01:39:04,VALID,998.896,VALID,0,VALID,89.2971,VALID,0.104696,VALID,22.802,VALID,150,VALID,0.426172,
2011-10-02, 01:40:04,VALID,998.869,VALID,0,VALID,89.4802,VALID,0,VALID,22.7452,VALID,150,VALID,0.310547,
2011-10-02, 01:41:04,VALID,998.864,VALID,0,VALID,89.6557,VALID,0,VALID,22.6867,VALID,150,VALID,0.201953,
2011-10-02, 01:42:04,VALID,998.837,VALID,0,VALID,89.8617,VALID,0,VALID,22.6477,VALID,150,VALID,0.161328,
2011-10-02, 01:43:04,VALID,998.815,VALID,0,VALID,90.0753,VALID,0,VALID,22.6087,VALID,150,VALID,0.126172,
2011-10-02, 01:44:04,VALID,998.831,VALID,0,VALID,90.2508,VALID,0,VALID,22.5892,VALID,150,VALID,0.0210938,
2011-10-02, 01:45:04,VALID,998.816,VALID,0,VALID,90.3728,VALID,0,VALID,22.5484,VALID,150,VALID,0,
2011-10-02, 01:46:04,VALID,998.844,VALID,0,VALID,90.4797,VALID,0,VALID,22.5289,VALID,150,VALID,0,
2011-10-02, 01:47:04,VALID,998.83,VALID,0,VALID,90.6323,VALID,0,VALID,22.5501,VALID,150,VALID,0,
2011-10-02, 01:48:04,VALID,998.845,VALID,0,VALID,90.7925,VALID,0,VALID,22.5306,VALID,150,VALID,0.176953,
2011-10-02, 01:49:04,VALID,998.854,VALID,0,VALID,90.8993,VALID,0,VALID,22.5501,VALID,150,VALID,0.249609,
2011-10-02, 01:50:04,VALID,998.866,VALID,0,VALID,91.0061,VALID,0,VALID,22.5696,VALID,150,VALID,0.237109,
2011-10-02, 01:51:04,VALID,998.917,VALID,0,VALID,91.0519,VALID,0,VALID,22.5892,VALID,150,VALID,0,
2011-10-02, 01:52:04,VALID,998.945,VALID,0,VALID,91.0977,VALID,0,VALID,22.5874,VALID,150,VALID,0,
2011-10-02, 01:53:04,VALID,998.935,VALID,0,VALID,91.09,VALID,0,VALID,22.6477,VALID,150,VALID,0,
2011-10-02, 01:54:04,VALID,998.926,VALID,0,VALID,90.968,VALID,0,VALID,22.6867,VALID,150,VALID,0,
2011-10-02, 01:55:04,VALID,998.911,VALID,0,VALID,90.823,VALID,0,VALID,22.724,VALID,150,VALID,0.254297,
2011-10-02, 01:56:04,VALID,998.91,VALID,0,VALID,90.6857,VALID,0,VALID,22.7452,VALID,37,VALID,0.495313,
2011-10-02, 01:57:04,VALID,998.904,VALID,0,VALID,90.7467,VALID,0,VALID,22.7045,VALID,37,VALID,0.274609,
2011-10-02, 01:58:04,VALID,998.903,VALID,0,VALID,90.7467,VALID,0,VALID,22.685,VALID,37,VALID,0.349219,
2011-10-02, 01:59:04,VALID,998.892,VALID,0,VALID,90.8535,VALID,0,VALID,22.7062,VALID,37,VALID,0.255469,
2011-10-02, 02:00:04,VALID,998.88,VALID,0,VALID,90.9527,VALID,0,VALID,22.646,VALID,37,VALID,0.180469,
2011-10-02, 02:01:04,VALID,998.873,VALID,0,VALID,91.029,VALID,0,VALID,22.6477,VALID,37,VALID,0.2625,
2011-10-02, 02:02:04,VALID,998.831,VALID,0,VALID,91.1587,VALID,0,VALID,22.6477,VALID,37,VALID,0.396484,
2011-10-02, 02:03:04,VALID,998.873,VALID,0,VALID,91.3037,VALID,0,VALID,22.6069,VALID,37,VALID,0.165234,
2011-10-02, 02:04:04,VALID,998.834,VALID,0,VALID,91.4715,VALID,0,VALID,22.6087,VALID,37,VALID,0.132813,
2011-10-02, 02:05:04,VALID,998.853,VALID,0,VALID,91.5783,VALID,0,VALID,22.5892,VALID,37,VALID,0,
2011-10-02, 02:06:04,VALID,998.872,VALID,0,VALID,91.6623,VALID,0,VALID,22.5892,VALID,37,VALID,0,
2011-10-02, 02:07:04,VALID,998.878,VALID,0,VALID,91.7691,VALID,0,VALID,22.5892,VALID,37,VALID,0.296875,
2011-10-02, 02:08:04,VALID,998.877,VALID,0,VALID,91.853,VALID,0,VALID,22.6087,VALID,37,VALID,0.355859,
2011-10-02, 02:09:04,VALID,998.885,VALID,0,VALID,91.853,VALID,0,VALID,22.6069,VALID,37,VALID,0.393359,
2011-10-02, 02:10:04,VALID,998.896,VALID,0,VALID,91.8454,VALID,0,VALID,22.646,VALID,37,VALID,0.177344,
2011-10-02, 02:11:04,VALID,998.867,VALID,0,VALID,91.7385,VALID,0,VALID,22.6867,VALID,37,VALID,0.31875,
2011-10-02, 02:12:04,VALID,998.908,VALID,0,VALID,91.6088,VALID,0,VALID,22.7062,VALID,37,VALID,0.239063,
2011-10-02, 02:13:04,VALID,998.889,VALID,0,VALID,91.4334,VALID,0,VALID,22.7257,VALID,37,VALID,0.186719,
2011-10-02, 02:14:04,VALID,998.913,VALID,0,VALID,91.296,VALID,0,VALID,22.724,VALID,37,VALID,0,
2011-10-02, 02:15:04,VALID,998.923,VALID,0,VALID,91.2045,VALID,0,VALID,22.7257,VALID,37,VALID,0,
2011-10-02, 02:16:04,VALID,998.915,VALID,0,VALID,91.1816,VALID,0,VALID,22.685,VALID,36,VALID,0.553906,
2011-10-02, 02:17:04,VALID,998.885,VALID,0,VALID,91.2503,VALID,0,VALID,22.7452,VALID,36,VALID,0.6125,
2011-10-02, 02:18:04,VALID,998.885,VALID,0,VALID,91.2884,VALID,0,VALID,22.7842,VALID,36,VALID,0.582812,
2011-10-02, 02:19:04,VALID,998.921,VALID,0,VALID,91.2503,VALID,0,VALID,22.8037,VALID,36,VALID,0.309766,
2011-10-02, 02:20:04,VALID,998.874,VALID,0,VALID,91.1892,VALID,0,VALID,22.8037,VALID,36,VALID,0.148047,
2011-10-02, 02:21:04,VALID,998.866,VALID,0,VALID,91.1206,VALID,0,VALID,22.7825,VALID,36,VALID,0.51875,
2011-10-02, 02:22:04,VALID,998.875,VALID,0,VALID,90.9374,VALID,0,VALID,22.8037,VALID,36,VALID,0.389453,
2011-10-02, 02:23:04,VALID,998.883,VALID,0,VALID,90.7543,VALID,0,VALID,22.8037,VALID,36,VALID,0.263281,
2011-10-02, 02:24:04,VALID,998.899,VALID,0,VALID,90.5331,VALID,0,VALID,22.802,VALID,36,VALID,0.412891,
2011-10-02, 02:25:04,VALID,998.94,VALID,0,VALID,90.4339,VALID,0,VALID,22.8427,VALID,36,VALID,0.148438,
2011-10-02, 02:26:04,VALID,998.94,VALID,0,VALID,90.2431,VALID,0,VALID,22.8427,VALID,36,VALID,0.00351562,
2011-10-02, 02:27:04,VALID,998.942,VALID,0,VALID,90.2889,VALID,0,VALID,22.8232,VALID,36,VALID,0.194922,
2011-10-02, 02:28:04,VALID,998.931,VALID,0,VALID,90.4263,VALID,0,VALID,22.8037,VALID,36,VALID,0.500391,
2011-10-02, 02:29:04,VALID,998.952,VALID,0,VALID,90.5407,VALID,0,VALID,22.7825,VALID,36,VALID,0.452344,
2011-10-02, 02:30:04,VALID,998.967,VALID,0,VALID,90.5788,VALID,0.104696,VALID,22.8037,VALID,36,VALID,0.266016,
2011-10-02, 02:31:04,VALID,998.972,VALID,0,VALID,90.5483,VALID,0,VALID,22.7842,VALID,36,VALID,0.0519531,
2011-10-02, 02:32:04,VALID,998.963,VALID,0,VALID,90.556,VALID,0,VALID,22.7647,VALID,36,VALID,0,
2011-10-02, 02:33:04,VALID,998.969,VALID,0,VALID,90.6246,VALID,0,VALID,22.7435,VALID,36,VALID,0.028125,
2011-10-02, 02:34:04,VALID,998.957,VALID,0,VALID,90.6475,VALID,0,VALID,22.7045,VALID,36,VALID,0.384375,
2011-10-02, 02:35:04,VALID,998.965,VALID,0,VALID,90.8383,VALID,0,VALID,22.6655,VALID,36,VALID,0.361328,
2011-10-02, 02:36:04,VALID,998.923,VALID,0,VALID,90.9146,VALID,0,VALID,22.6655,VALID,118,VALID,0.774219,
2011-10-02, 02:37:04,VALID,998.917,VALID,0,VALID,90.8611,VALID,0,VALID,22.6689,VALID,130,VALID,0.783203,
2011-10-02, 02:38:04,VALID,998.911,VALID,0,VALID,90.8154,VALID,0,VALID,22.6689,VALID,136,VALID,0.934375,
2011-10-02, 02:39:04,VALID,998.919,VALID,0,VALID,90.8688,VALID,0,VALID,22.7079,VALID,144,VALID,1.07539,
2011-10-02, 02:40:04,VALID,998.916,VALID,0,VALID,90.6323,VALID,0,VALID,22.7469,VALID,149,VALID,1.11992,
2011-10-02, 02:41:04,VALID,998.903,VALID,0,VALID,89.6404,VALID,0,VALID,22.7664,VALID,149,VALID,1.17734,
2011-10-02, 02:42:04,VALID,998.918,VALID,0,VALID,88.6486,VALID,0,VALID,22.864,VALID,158,VALID,1.44023,
2011-10-02, 02:43:04,VALID,998.913,VALID,0,VALID,88.0382,VALID,0,VALID,22.942,VALID,161,VALID,1.47891,
2011-10-02, 02:44:04,VALID,998.947,VALID,0,VALID,87.2676,VALID,0,VALID,23.0201,VALID,165,VALID,1.30234,
2011-10-02, 02:45:04,VALID,998.938,VALID,0,VALID,86.5733,VALID,0,VALID,23.0378,VALID,165,VALID,1.49063,
2011-10-02, 02:46:04,VALID,998.942,VALID,0,VALID,86.1308,VALID,0,VALID,23.0964,VALID,174,VALID,1.79766,
2011-10-02, 02:47:04,VALID,998.953,VALID,0,VALID,86.1232,VALID,0,VALID,23.1354,VALID,174,VALID,1.6,
2011-10-02, 02:48:04,VALID,998.965,VALID,0,VALID,85.9858,VALID,0,VALID,23.1957,VALID,174,VALID,1.49844,
2011-10-02, 02:49:04,VALID,998.955,VALID,0,VALID,85.5128,VALID,0,VALID,23.2152,VALID,174,VALID,1.16953,
2011-10-02, 02:50:04,VALID,998.98,VALID,0,VALID,85.3983,VALID,0,VALID,23.2347,VALID,174,VALID,1.24219,
2011-10-02, 02:51:04,VALID,998.957,VALID,0,VALID,85.5738,VALID,0,VALID,23.2347,VALID,191,VALID,1.18945,
2011-10-02, 02:52:04,VALID,998.951,VALID,0,VALID,86.0087,VALID,0,VALID,23.2134,VALID,180,VALID,1.01016,
2011-10-02, 02:53:04,VALID,998.984,VALID,0,VALID,86.7946,VALID,0,VALID,23.1921,VALID,180,VALID,1.18125,
2011-10-02, 02:54:04,VALID,998.95,VALID,0,VALID,86.9319,VALID,0,VALID,23.1726,VALID,180,VALID,1.16133,
2011-10-02, 02:55:04,VALID,998.959,VALID,0,VALID,87.3057,VALID,0,VALID,23.1939,VALID,180,VALID,1.05117,
2011-10-02, 02:56:04,VALID,998.986,VALID,0,VALID,87.5117,VALID,0,VALID,23.1744,VALID,180,VALID,0.921484,
2011-10-02, 02:57:04,VALID,999.006,VALID,0,VALID,86.8861,VALID,0,VALID,23.1141,VALID,180,VALID,0.760547,
2011-10-02, 02:58:04,VALID,999.025,VALID,0,VALID,86.7488,VALID,0.104696,VALID,23.1141,VALID,180,VALID,0.638281,
2011-10-02, 02:59:04,VALID,999.014,VALID,0,VALID,86.2223,VALID,0,VALID,23.1159,VALID,180,VALID,0.676953,
2011-10-02, 03:00:04,VALID,999.027,VALID,0,VALID,85.9019,VALID,0,VALID,23.1141,VALID,180,VALID,0.378125,
2011-10-02, 03:01:04,VALID,999.024,VALID,0,VALID,86.0316,VALID,0,VALID,23.0946,VALID,180,VALID,0.0921875,
2011-10-02, 03:02:04,VALID,999.009,VALID,0,VALID,87.1074,VALID,0,VALID,23.0573,VALID,180,VALID,0.195703,
2011-10-02, 03:03:04,VALID,998.992,VALID,0,VALID,87.672,VALID,0,VALID,22.9581,VALID,180,VALID,0.319531,
2011-10-02, 03:04:04,VALID,998.988,VALID,0,VALID,88.2137,VALID,0.104696,VALID,22.8818,VALID,180,VALID,0.330078,
2011-10-02, 03:05:04,VALID,998.98,VALID,0,VALID,88.7249,VALID,0,VALID,22.8037,VALID,180,VALID,0.380469,
2011-10-02, 03:06:04,VALID,998.976,VALID,0,VALID,89.2208,VALID,0,VALID,22.7257,VALID,180,VALID,0.221094,
2011-10-02, 03:07:04,VALID,998.974,VALID,0,VALID,89.5641,VALID,0,VALID,22.6477,VALID,180,VALID,0.425,
2011-10-02, 03:08:04,VALID,998.984,VALID,0,VALID,89.8083,VALID,0,VALID,22.5874,VALID,180,VALID,0.532812,
2011-10-02, 03:09:04,VALID,998.989,VALID,0,VALID,89.9456,VALID,0,VALID,22.5696,VALID,180,VALID,0.697656,
2011-10-02, 03:10:04,VALID,998.953,VALID,0,VALID,90.3271,VALID,0,VALID,22.5501,VALID,180,VALID,0.76875,
2011-10-02, 03:11:04,VALID,998.939,VALID,0,VALID,90.5712,VALID,0,VALID,22.5306,VALID,180,VALID,0.685156,
2011-10-02, 03:12:04,VALID,998.964,VALID,0,VALID,90.678,VALID,0,VALID,22.4509,VALID,180,VALID,0.767187,
2011-10-02, 03:13:04,VALID,998.958,VALID,0,VALID,90.8154,VALID,0,VALID,22.3941,VALID,87,VALID,0.901172,
2011-10-02, 03:14:04,VALID,998.976,VALID,0,VALID,91.1968,VALID,0,VALID,22.3746,VALID,87,VALID,0.950391,
2011-10-02, 03:15:04,VALID,998.979,VALID,0,VALID,91.5478,VALID,0,VALID,22.3534,VALID,87,VALID,0.945313,
2011-10-02, 03:16:04,VALID,999.011,VALID,0,VALID,91.708,VALID,0.104696,VALID,22.2949,VALID,52,VALID,0.966797,
2011-10-02, 03:17:04,VALID,999.002,VALID,0,VALID,91.8988,VALID,0,VALID,22.2559,VALID,47,VALID,1.01953,
2011-10-02, 03:18:04,VALID,999.033,VALID,0,VALID,92.0361,VALID,0,VALID,22.2576,VALID,47,VALID,1.10625,
2011-10-02, 03:19:04,VALID,999.029,VALID,0,VALID,92.12,VALID,0,VALID,22.2364,VALID,47,VALID,1.10586,
2011-10-02, 03:20:04,VALID,999.028,VALID,0,VALID,92.2421,VALID,0,VALID,22.2576,VALID,47,VALID,1.11328,
2011-10-02, 03:21:04,VALID,999.04,VALID,0,VALID,92.326,VALID,0,VALID,22.2169,VALID,47,VALID,1.01523,
2011-10-02, 03:22:04,VALID,999.019,VALID,0,VALID,92.3566,VALID,0,VALID,22.2381,VALID,47,VALID,1.02305,
2011-10-02, 03:23:04,VALID,999.051,VALID,0,VALID,92.4023,VALID,0,VALID,22.2169,VALID,47,VALID,1.05273,
2011-10-02, 03:24:04,VALID,999.044,VALID,0,VALID,92.471,VALID,0,VALID,22.2381,VALID,47,VALID,1.13945,
2011-10-02, 03:25:04,VALID,999.033,VALID,0,VALID,92.471,VALID,0,VALID,22.2381,VALID,47,VALID,1.35898,
2011-10-02, 03:26:04,VALID,999.03,VALID,0,VALID,92.4786,VALID,0,VALID,22.2381,VALID,47,VALID,1.06523,
2011-10-02, 03:27:04,VALID,999.061,VALID,0,VALID,92.4405,VALID,0,VALID,22.1795,VALID,47,VALID,0.749219,
2011-10-02, 03:28:04,VALID,999.036,VALID,0,VALID,92.4252,VALID,0,VALID,22.1405,VALID,47,VALID,0.972266,
2011-10-02, 03:29:04,VALID,999.031,VALID,0,VALID,92.5015,VALID,0,VALID,22.121,VALID,47,VALID,1.05156,
2011-10-02, 03:30:04,VALID,998.996,VALID,0,VALID,92.5397,VALID,0,VALID,22.1015,VALID,47,VALID,1.0375,
2011-10-02, 03:31:04,VALID,999.03,VALID,0,VALID,92.5778,VALID,0,VALID,22.082,VALID,47,VALID,0.922656,
2011-10-02, 03:32:04,VALID,998.995,VALID,0,VALID,92.6388,VALID,0,VALID,22.0625,VALID,47,VALID,1.34453,
2011-10-02, 03:33:04,VALID,999.012,VALID,0,VALID,92.738,VALID,0,VALID,22.043,VALID,47,VALID,1.2,
2011-10-02, 03:34:04,VALID,999.008,VALID,0,VALID,92.8067,VALID,0,VALID,22.043,VALID,47,VALID,1.27695,
2011-10-02, 03:35:04,VALID,999.007,VALID,0,VALID,92.8754,VALID,0,VALID,22.043,VALID,47,VALID,1.06836,
2011-10-02, 03:36:04,VALID,999.004,VALID,0,VALID,92.9211,VALID,0,VALID,22.043,VALID,47,VALID,0.993359,
2011-10-02, 03:37:04,VALID,999.016,VALID,0,VALID,92.9745,VALID,0,VALID,22.043,VALID,47,VALID,0.739453,
2011-10-02, 03:38:04,VALID,999.022,VALID,0,VALID,93.0203,VALID,0,VALID,22.0235,VALID,47,VALID,0.542578,
2011-10-02, 03:39:04,VALID,999.052,VALID,0,VALID,93.0203,VALID,0,VALID,22.004,VALID,47,VALID,0.363672,
2011-10-02, 03:40:04,VALID,998.985,VALID,0,VALID,93.0203,VALID,0,VALID,21.9438,VALID,47,VALID,0.207813,
2011-10-02, 03:41:04,VALID,999.002,VALID,0,VALID,92.9974,VALID,0.104696,VALID,21.9243,VALID,47,VALID,0.404297,
2011-10-02, 03:42:04,VALID,998.982,VALID,0,VALID,93.0051,VALID,0,VALID,21.9065,VALID,47,VALID,0.615234,
2011-10-02, 03:43:04,VALID,998.982,VALID,0,VALID,93.0737,VALID,0,VALID,21.9065,VALID,47,VALID,0.751172,
2011-10-02, 03:44:04,VALID,998.964,VALID,0,VALID,93.1043,VALID,0,VALID,21.8675,VALID,47,VALID,0.866406,
2011-10-02, 03:45:04,VALID,998.984,VALID,0,VALID,93.1348,VALID,0,VALID,21.8675,VALID,47,VALID,0.961719,